GFSGL_sfc_temp_120.txt.gz
Temp
83 82 83 85 84 81 82 84 85 87 87 86 87 88 87 87 87 85 85 87 81 81 81 81 79 81 81 79 82 79 77 78 78 86 91 87 85 84 84 84 85 83 79
83 82 81 78 82 84 85 85 86 84 86 85 86 87 87 87 87 85 85 87 84 82 83 81 79 82 81 82 85 81 82 83 82 78 84 84 82 85 82 82 83 86 80
81 81 82 82 74 79 80 80 79 83 85 86 84 85 86 87 87 86 86 86 85 84 84 81 81 82 80 85 84 79 81 80 77 78 81 85 81 84 83 82 82 79 79
77 77 77 77 81 79 81 82 81 83 83 84 85 83 85 87 87 87 86 85 85 86 85 84 84 84 83 83 83 77 80 80 78 78 82 82 76 78 82 81 79 82 81
75 75 74 73 75 79 81 83 85 84 84 81 84 85 82 85 89 83 86 86 84 85 85 86 86 84 77 80 84 79 76 77 77 74 79 80 80 78 75 83 80 83 82
76 75 74 72 71 69 70 74 78 78 78 76 81 82 83 86 73 69 77 87 86 83 83 85 86 77 76 70 70 70 79 77 77 79 79 77 78 79 80 82 83 79 78
75 77 76 71 68 68 70 71 69 68 68 68 70 70 73 76 64 63 65 81 82 84 83 83 85 89 79 84 69 67 68 68 70 80 78 79 80 81 81 79 79 77 78
75 74 76 75 76 74 69 71 70 71 68 68 69 71 72 75 63 61 63 72 77 79 82 81 81 86 83 84 84 81 81 81 79 83 82 83 84 84 83 82 79 76 80
74 75 75 74 74 75 75 75 75 74 76 77 74 73 75 77 60 59 63 71 71 77 81 83 81 81 70 64 83 81 80 82 74 67 67 66 65 65 73 82 81 78 77
73 74 76 76 76 75 74 73 76 77 77 80 78 78 70 77 58 56 62 73 71 74 74 76 64 69 62 61 78 79 78 80 85 83 81 74 69 74 63 79 85 80 78
72 74 74 75 75 75 74 71 74 73 73 75 74 71 71 66 71 54 55 70 72 73 73 72 74 60 57 55 58 78 70 70 72 76 81 82 83 82 84 81 82 81 78
74 73 73 74 76 75 74 72 73 73 70 66 66 64 63 63 54 56 52 55 62 70 73 76 76 55 53 53 58 57 55 60 69 70 72 77 79 79 81 82 82 83 82
74 73 73 74 74 75 75 75 73 69 66 64 63 62 62 63 63 53 52 55 57 67 72 65 57 53 53 56 55 54 55 67 67 68 69 72 76 78 79 78 79 80 79
72 73 74 75 74 76 80 79 80 76 74 70 67 65 67 72 67 69 65 63 58 63 62 63 59 59 57 60 61 59 66 67 67 67 68 68 69 71 71 73 73 74 70
74 74 75 78 76 76 75 73 77 69 67 78 78 75 70 69 64 51 55 65 62 56 60 63 62 62 63 63 65 66 65 64 64 65 64 65 66 67 66 69 69 70 69
71 76 77 79 80 80 78 74 49 49 45 44 44 61 68 50 45 44 44 45 46 49 62 71 75 72 69 70 67 64 64 63 63 63 63 64 65 71 74 74 72 70 69
71 73 76 71 80 79 78 78 76 60 45 44 43 44 44 45 44 45 46 45 47 52 78 76 70 68 69 70 69 70 69 69 69 69 68 69 72 74 69 67 66 69 67
73 56 75 77 81 81 80 79 80 79 77 73 49 51 43 43 43 45 47 49 74 70 74 71 68 67 67 67 67 67 67 67 69 69 67 65 65 66 64 64 64 64 65
77 79 78 80 81 74 82 81 82 81 81 80 74 56 52 44 45 46 47 76 78 76 75 71 69 67 67 64 64 64 64 67 67 67 66 64 63 62 63 63 63 56 58
77 64 65 79 81 80 83 83 83 81 80 82 79 80 73 64 74 77 78 78 79 78 77 73 70 69 67 70 70 72 70 66 65 65 64 66 66 66 66 65 64 62 63
81 80 66 79 81 82 83 80 82 82 82 81 78 72 52 77 77 78 81 79 79 79 79 78 77 75 74 73 74 74 74 74 72 74 76 72 71 70 66 68 68 67 63
79 80 82 80 81 80 82 83 81 82 82 82 81 70 46 74 81 78 79 80 80 79 81 79 82 81 81 81 78 80 78 78 77 78 79 79 78 76 73 74 71 69 64
79 79 79 80 80 67 78 83 82 81 82 83 82 82 78 79 82 84 78 79 80 79 79 79 80 81 81 80 81 79 81 80 79 78 77 78 73 77 75 72 77 74 72
80 79 79 80 81 80 81 80 81 64 76 82 84 83 82 82 82 80 80 81 80 79 80 79 79 81 80 78 81 80 81 80 78 79 75 75 72 66 72 71 71 72 73
80 78 79 79 79 78 79 79 79 80 80 81 83 82 83 83 82 81 81 79 80 80 79 80 80 79 77 77 78 78 54 45 62 47 75 76 74 72 74 73 72 74 72
80 78 78 78 78 79 78 79 79 79 79 80 81 81 81 81 83 83 81 80 76 80 79 79 78 78 78 78 77 54 40 39 55 39 68 75 75 75 73 73 71 72 73

GFSGL_sfc_temp_126.txt.gz
Temp
85 84 83 84 84 83 82 82 82 81 81 80 81 80 82 82 82 81 81 81 80 80 80 80 79 79 79 77 75 73 72 72 69 74 77 79 77 77 79 79 79 79 76
85 83 83 83 83 83 82 81 81 81 81 82 81 80 79 80 81 81 81 83 81 80 81 79 79 80 76 75 77 74 74 75 72 71 76 74 76 77 77 77 78 81 79
84 84 83 82 82 80 81 81 81 79 80 81 80 79 78 79 79 80 81 82 82 82 82 80 79 78 76 77 77 78 78 77 74 72 72 74 75 76 77 76 76 77 79
79 76 76 78 79 80 79 79 80 80 79 79 79 80 77 77 74 77 80 80 81 82 83 82 81 80 78 78 78 77 76 75 75 76 73 73 76 77 75 73 73 75 75
77 75 75 77 76 76 77 77 77 77 80 79 78 79 78 75 74 74 80 80 80 80 81 82 82 81 77 77 78 78 77 76 76 75 74 74 75 73 73 73 73 75 75
74 74 75 75 75 75 75 75 74 75 76 78 78 78 77 78 71 68 76 79 80 79 79 81 83 77 75 72 72 73 78 76 75 75 73 73 73 74 73 73 73 72 70
74 75 75 74 74 74 75 74 73 73 74 75 76 77 77 78 63 64 66 77 77 78 79 79 82 87 77 80 69 69 70 70 73 76 74 74 74 76 75 73 73 73 73
74 74 74 72 71 73 73 73 72 72 72 72 73 75 74 72 62 62 64 74 76 77 78 79 79 80 81 80 79 74 77 76 75 77 76 75 76 76 76 75 74 73 75
74 74 72 73 73 72 73 72 72 71 70 72 73 71 70 70 61 61 65 70 73 77 77 78 78 80 73 66 76 77 77 78 71 68 69 71 68 66 69 74 71 70 71
71 71 68 69 71 73 74 71 71 71 70 71 71 72 69 72 59 58 62 69 69 69 72 76 67 74 64 61 75 75 74 75 76 72 70 66 66 69 64 68 70 68 68
69 68 67 70 69 73 72 73 72 71 72 71 71 69 70 68 65 57 56 69 70 70 70 71 75 61 58 57 59 73 73 71 69 71 70 70 70 70 70 70 71 70 69
68 66 64 68 73 73 72 71 71 70 67 68 66 65 67 67 56 56 53 56 61 71 72 74 70 56 54 55 59 55 57 64 71 71 69 68 68 68 70 70 71 70 71
62 62 62 67 71 72 70 70 69 70 66 63 63 64 65 67 67 54 53 53 55 65 66 61 54 52 51 55 56 57 60 68 69 67 66 66 68 68 68 68 68 67 69
60 61 63 66 68 70 71 70 70 67 66 68 64 62 63 66 65 65 66 63 57 62 61 61 60 59 58 58 60 60 65 66 66 66 66 67 69 68 66 66 65 65 65
60 60 62 69 69 71 68 64 68 60 59 65 69 69 65 64 60 53 53 64 64 60 62 65 64 65 64 65 66 64 66 66 66 66 67 68 67 67 66 66 66 66 63
59 61 61 69 74 71 70 65 50 50 46 45 44 58 60 50 48 47 45 47 50 53 64 64 63 63 62 63 64 64 65 66 68 68 68 68 66 65 66 66 66 65 64
59 61 67 69 72 69 73 72 68 56 46 44 44 44 44 50 48 44 46 47 47 52 69 67 68 68 66 67 67 66 67 67 67 67 68 68 67 66 66 67 66 66 65
61 58 69 72 73 75 70 72 75 70 68 65 50 51 46 46 45 45 45 49 68 61 71 70 68 68 67 67 68 68 67 68 68 68 66 66 68 67 65 66 66 66 65
64 68 68 76 73 70 74 76 77 71 70 66 66 53 50 44 44 44 45 62 69 73 71 70 68 67 67 67 66 66 66 66 66 67 67 68 67 68 66 67 64 54 57
73 69 68 73 76 76 76 72 71 68 71 72 67 68 66 62 67 69 70 72 70 72 73 71 70 69 69 68 68 67 66 65 66 67 67 67 67 67 66 65 66 65 63
75 74 71 78 78 72 74 78 69 69 67 69 68 70 61 70 67 67 70 70 75 73 73 72 73 71 70 70 70 69 70 70 70 69 69 68 69 66 66 66 66 67 65
69 77 78 76 72 70 76 79 80 75 74 74 73 67 52 73 73 70 70 72 74 75 76 72 73 74 74 71 70 69 71 71 71 71 69 70 69 68 68 69 66 67 66
76 75 78 71 75 70 79 80 80 77 72 71 72 71 74 75 77 74 70 70 73 73 73 75 75 75 76 75 75 75 71 70 70 71 71 70 69 70 68 68 68 66 65
77 74 77 73 71 80 70 69 79 69 77 79 80 79 78 74 77 71 75 77 76 75 75 75 76 76 72 71 71 73 75 71 72 72 70 70 70 64 70 69 68 66 64
74 72 79 75 70 72 74 75 79 73 78 79 81 79 80 80 79 79 73 75 76 72 73 75 75 76 75 76 69 68 52 44 63 53 71 70 70 69 71 69 67 66 66
67 68 70 71 75 78 76 73 75 79 79 78 72 72 78 79 80 80 79 73 75 76 76 75 75 76 76 76 72 50 40 40 56 49 68 68 68 69 70 68 68 68 67

GFSGL_sfc_temp_129.txt.gz
Temp
76 76 76 76 76 76 75 76 77 77 77 78 79 78 74 79 78 78 78 78 77 77 78 76 76 77 77 75 72 70 70 69 67 69 71 73 72 72 73 73 74 74 73
78 78 78 75 76 75 74 74 75 76 76 78 78 77 77 77 76 76 76 77 76 77 78 77 77 77 76 75 73 71 71 71 69 68 70 69 70 72 73 73 73 75 73
75 75 71 71 71 72 73 73 73 73 74 76 76 76 76 76 76 77 72 71 72 76 76 78 77 77 75 74 74 72 71 72 71 70 68 69 70 71 71 72 72 72 74
71 70 69 69 71 71 72 72 72 72 72 73 75 75 75 77 76 75 71 69 69 71 74 76 79 78 76 74 73 73 72 71 71 70 69 68 69 71 70 69 68 70 71
69 68 67 68 69 69 69 70 71 70 72 71 72 74 74 74 76 73 72 69 69 69 69 72 78 79 76 75 76 75 74 73 70 70 68 68 68 68 68 69 68 69 70
67 67 68 68 67 68 69 69 69 70 69 70 71 72 73 75 71 66 71 69 68 68 69 71 77 74 74 71 71 74 76 73 71 72 68 67 68 68 69 68 68 67 65
66 67 67 67 67 67 67 68 68 68 68 69 70 71 72 72 65 65 66 69 69 69 69 71 74 79 73 76 69 70 71 71 73 74 71 70 68 69 69 69 68 67 67
66 66 67 66 66 67 67 67 68 68 67 67 69 70 70 69 62 60 63 72 66 66 67 69 71 76 74 76 73 72 72 73 73 77 75 71 72 72 72 71 70 70 69
66 65 65 65 64 64 65 66 67 67 67 67 68 69 69 69 60 59 62 69 70 68 68 72 72 74 69 65 74 73 72 72 69 67 68 70 70 67 71 71 69 67 66
64 63 63 63 64 64 65 65 65 65 67 67 67 69 67 68 60 57 60 66 66 67 69 71 65 71 64 60 72 71 69 72 73 70 66 65 66 66 65 71 69 67 65
64 63 62 62 63 65 65 63 65 65 65 65 65 65 64 62 62 55 55 64 67 66 67 68 71 62 59 57 58 71 72 71 68 69 69 68 68 68 69 69 69 68 66
62 61 61 62 63 64 64 64 65 63 63 63 64 64 65 64 58 56 55 56 60 65 68 68 66 57 55 54 56 59 58 64 69 69 68 67 68 68 69 69 69 69 69
60 60 60 62 63 62 63 62 63 63 63 60 60 62 63 64 62 54 56 56 56 63 63 60 53 51 51 55 54 55 62 69 68 68 66 66 66 67 68 67 67 67 67
58 58 60 60 61 62 63 63 61 59 59 61 60 60 62 62 61 61 61 61 56 60 60 60 59 58 56 57 59 60 66 67 67 66 65 66 66 66 66 65 63 64 63
58 59 59 60 61 61 60 56 59 55 51 56 59 59 60 58 56 53 54 58 62 60 61 63 63 63 63 63 63 63 64 65 65 65 65 65 65 65 64 64 63 63 62
58 59 59 59 63 65 60 56 50 49 46 44 44 52 52 49 48 46 46 49 51 53 62 62 62 62 62 62 63 62 63 63 64 64 64 64 64 63 62 63 62 63 61
58 59 59 58 64 66 65 60 58 53 47 44 43 43 47 48 47 45 46 45 48 53 61 62 61 60 61 61 61 61 60 62 63 62 62 62 62 62 61 62 62 61 62
60 55 59 62 63 66 68 65 65 58 57 61 49 47 44 45 45 44 45 47 58 55 57 62 60 59 63 61 63 62 63 63 62 63 62 63 63 62 63 62 62 62 62
60 60 61 64 65 65 65 65 65 65 62 60 58 51 47 44 44 43 45 57 62 62 60 59 58 58 58 58 58 59 59 59 60 61 64 62 62 64 62 61 60 54 55
62 62 60 64 66 67 69 66 67 65 62 60 58 62 58 56 60 61 60 61 64 63 61 60 59 59 58 58 58 58 58 57 59 59 61 59 61 62 61 60 58 59 60
62 66 63 65 66 64 67 68 64 65 66 64 63 62 55 61 61 63 65 62 65 65 62 61 60 60 60 60 60 59 59 59 59 60 59 59 59 58 58 58 58 57 56
62 62 66 67 66 66 70 71 65 66 65 65 63 59 52 59 61 63 63 64 66 65 67 64 64 63 63 62 61 61 61 61 61 61 61 61 60 59 59 58 58 57 56
62 66 66 67 68 63 64 65 67 65 66 65 66 65 60 61 62 65 65 68 66 65 65 65 68 68 69 64 63 64 66 64 65 62 61 61 60 60 60 59 58 57 57
63 65 65 67 67 67 67 67 68 61 65 65 66 63 63 64 66 68 68 68 65 64 65 65 66 67 68 68 66 65 65 64 63 64 62 61 60 58 59 59 59 59 57
62 63 64 62 63 64 65 65 68 64 70 67 66 65 65 66 65 66 69 69 69 66 65 68 66 67 68 69 68 67 53 45 60 56 62 62 61 60 59 58 58 58 58
58 59 62 61 60 62 62 62 62 62 63 63 66 65 68 69 67 64 64 65 65 66 66 65 67 68 69 68 67 50 39 40 55 52 62 61 59 57 57 58 58 58 60

GFSGL_sfc_temp_135.txt.gz
Temp
71 71 70 71 71 70 70 71 71 71 71 72 72 73 73 73 71 72 72 71 71 71 73 72 72 73 74 75 71 71 70 69 68 70 69 69 69 70 71 72 72 71 70
70 69 70 70 70 69 69 69 69 69 70 72 72 71 72 72 72 71 72 74 72 73 73 72 72 74 73 74 74 71 71 71 69 68 71 67 68 70 69 69 70 72 71
68 68 67 67 66 66 66 67 67 67 69 69 70 70 71 71 71 70 71 72 73 74 74 73 73 73 72 74 74 74 72 72 70 69 70 68 68 68 68 68 69 69 71
68 67 66 65 65 65 66 66 66 67 67 68 68 69 70 71 71 71 71 70 71 73 73 74 74 74 73 73 73 73 73 71 71 69 69 69 68 67 67 66 67 67 68
65 65 66 66 65 65 65 65 66 66 67 67 68 69 69 69 71 69 70 70 71 73 73 73 74 75 74 73 72 71 71 71 70 69 68 69 70 68 66 66 66 66 67
63 65 66 64 64 64 64 64 64 65 65 65 66 67 68 69 67 65 68 69 71 72 72 73 71 71 70 68 69 69 71 70 69 69 69 69 71 70 66 66 66 64 64
63 65 65 64 63 63 63 62 62 62 63 64 65 66 66 67 64 63 65 67 69 71 72 71 71 72 69 71 66 65 66 66 68 70 69 69 70 72 69 65 65 65 65
62 64 64 64 63 62 61 61 60 60 61 62 64 65 65 66 63 60 61 65 67 69 71 71 71 70 69 67 68 66 67 68 67 68 70 72 73 73 70 70 69 67 66
62 62 63 62 61 61 60 59 60 60 61 61 64 64 64 66 61 58 59 65 66 67 70 71 71 69 66 62 67 66 67 67 66 64 65 66 66 64 67 67 66 65 64
62 62 62 61 60 59 59 58 59 60 61 62 63 65 63 65 60 56 57 64 65 66 67 69 64 67 61 59 65 66 64 66 67 69 66 64 64 66 63 70 69 66 64
61 60 60 60 59 58 58 58 58 60 61 62 63 63 64 64 64 55 54 59 65 65 66 67 67 59 56 54 57 65 64 66 66 68 69 70 70 70 68 69 70 70 64
59 59 59 59 59 60 57 58 59 60 60 61 61 61 63 64 58 55 53 53 57 62 65 67 66 56 54 53 54 58 56 59 66 66 67 67 68 69 70 70 70 69 69
58 58 58 60 59 58 57 58 59 60 58 58 60 60 59 60 59 54 51 53 55 57 62 62 54 52 51 53 53 55 55 62 64 66 65 66 69 71 70 68 68 68 67
58 57 56 56 56 56 58 58 59 58 58 57 57 58 58 57 56 56 56 58 58 58 59 59 58 58 57 58 59 60 63 64 65 66 66 65 68 68 67 68 66 65 64
56 55 55 55 56 57 57 58 59 60 58 59 55 54 53 53 52 47 46 52 53 55 55 61 62 62 62 63 63 64 65 66 65 67 67 66 66 67 66 66 65 64 63
55 55 55 55 56 57 56 58 56 53 49 45 43 45 51 48 44 44 42 42 44 46 60 62 62 62 62 62 62 62 63 64 64 64 65 65 65 65 64 64 63 63 61
56 55 55 57 57 57 58 57 57 60 47 45 43 42 41 42 45 43 41 41 44 51 62 61 61 61 61 61 61 62 62 62 64 64 64 64 64 63 63 63 62 61 60
58 53 56 57 58 58 58 58 59 58 60 61 47 44 42 43 44 42 41 45 58 55 59 60 59 59 60 60 61 61 61 62 62 62 62 63 63 62 62 61 60 60 60
58 58 58 58 58 57 58 59 60 60 59 58 57 49 46 42 42 42 42 53 56 56 56 56 57 58 59 60 60 60 61 61 61 61 61 61 61 61 60 60 60 55 57
59 58 56 58 58 59 59 59 59 63 60 61 58 57 55 52 56 56 57 56 60 57 55 55 55 55 56 57 57 57 58 58 59 60 61 61 61 61 60 59 59 59 58
57 57 58 57 58 58 60 59 60 62 64 60 59 59 51 57 56 58 58 58 58 57 56 56 55 55 56 56 57 56 56 58 58 58 58 57 58 58 58 56 55 54 55
57 56 60 58 60 58 60 61 62 62 60 60 62 60 47 56 56 58 58 60 58 58 58 57 59 57 58 58 58 58 58 58 58 58 57 57 56 56 56 55 55 54 54
58 58 58 58 59 58 60 60 59 60 58 61 61 60 57 56 56 57 61 61 60 59 58 60 62 62 59 59 59 59 58 58 59 59 58 58 57 57 57 56 56 54 53
57 59 57 56 56 57 57 56 57 53 55 56 57 56 55 55 56 59 59 61 63 60 61 60 58 63 64 63 62 63 62 62 63 60 61 60 59 55 56 56 55 55 54
54 53 53 53 53 52 53 55 53 54 55 55 52 50 51 52 52 55 56 56 57 57 58 58 57 57 60 64 61 64 54 42 58 54 60 61 59 58 57 56 55 55 54
49 50 50 49 49 50 49 49 50 51 52 53 52 51 49 49 49 50 51 52 53 53 51 50 49 46 48 46 45 40 37 35 47 41 59 60 59 58 56 55 55 54 54

GFSGL_sfc_temp_138.txt.gz
Temp
72 72 71 71 71 71 71 71 71 72 72 72 73 73 74 74 74 73 73 73 72 72 72 72 72 73 72 74 72 72 71 71 69 73 74 76 74 70 71 76 76 77 76
72 71 70 71 70 69 69 70 70 69 69 70 71 71 72 73 74 73 72 74 72 72 73 72 72 72 71 73 75 72 71 72 70 69 73 73 70 70 74 72 72 75 74
69 67 68 68 68 68 68 69 68 68 69 69 69 69 70 71 72 73 73 73 73 74 74 73 73 73 71 73 74 74 72 72 71 70 71 72 72 69 70 70 74 75 76
69 67 66 67 67 68 68 68 68 69 68 69 69 69 69 70 71 72 72 72 72 73 74 74 74 74 73 73 72 72 73 72 72 70 70 70 71 71 72 71 71 73 76
65 65 65 66 66 67 67 67 67 68 68 68 68 69 69 69 71 71 71 71 71 71 72 73 74 75 73 74 75 73 72 71 71 70 69 69 69 69 70 71 72 73 74
64 64 65 65 65 65 66 66 66 66 66 66 67 67 67 70 66 65 68 70 71 70 70 72 73 72 72 69 69 70 73 71 70 70 70 70 71 71 71 71 72 71 72
63 64 64 65 65 65 65 65 64 64 64 64 65 65 66 67 64 62 64 68 69 69 69 71 72 74 71 73 69 66 68 67 71 73 72 72 72 73 72 70 70 72 74
62 63 64 64 64 65 64 63 63 63 63 63 63 64 64 66 62 60 61 66 67 68 69 69 69 72 72 71 71 70 69 70 70 73 74 75 74 75 74 74 72 72 73
63 63 63 64 63 63 63 62 62 61 62 63 64 64 63 65 60 58 59 63 64 65 67 68 70 71 68 62 68 68 68 69 69 64 65 65 64 63 69 72 69 69 69
63 63 63 63 62 62 62 61 60 61 62 62 63 64 63 65 60 57 57 62 63 64 66 67 64 67 62 59 66 67 65 66 67 69 68 65 64 67 62 73 71 68 68
62 62 61 62 61 61 60 60 60 60 61 61 62 64 64 63 63 56 54 59 60 62 65 66 68 60 57 55 57 67 66 69 66 68 69 70 70 70 69 70 72 71 68
61 60 61 60 61 62 60 59 60 60 60 60 60 62 62 62 58 57 54 53 56 58 60 64 66 57 54 53 54 58 57 60 67 66 68 68 69 69 70 70 71 72 72
60 60 60 60 61 60 59 58 58 60 59 59 58 58 60 62 62 55 51 51 54 58 60 60 56 52 52 52 52 54 55 62 64 63 64 66 69 70 72 71 71 72 71
59 60 59 58 58 59 58 59 59 59 59 58 58 58 58 58 58 58 56 55 56 56 59 60 58 57 56 58 58 54 59 62 62 63 65 67 66 67 69 70 68 68 67
59 58 58 58 58 57 58 58 58 60 58 58 59 58 57 57 58 48 46 50 49 49 48 58 61 62 63 62 63 63 64 64 64 65 65 65 64 66 67 69 68 66 65
57 58 57 57 59 58 57 58 55 52 50 48 46 50 56 50 45 42 42 42 42 44 57 61 62 62 62 62 62 62 63 64 65 65 66 65 64 65 65 65 65 65 63
57 58 58 56 58 58 58 57 57 58 53 51 49 43 44 45 42 41 41 41 42 48 62 61 60 61 61 62 62 62 63 63 64 65 65 65 65 64 63 63 64 63 62
58 54 56 57 58 58 58 58 58 57 57 60 54 45 42 41 41 41 40 44 63 60 62 61 60 60 60 60 61 61 62 63 63 63 63 63 63 63 63 62 62 62 61
58 58 59 58 58 58 58 58 59 58 58 60 63 52 47 42 41 41 41 58 62 62 61 60 59 60 61 61 59 60 61 60 62 62 62 62 63 62 62 62 61 56 58
58 57 56 58 58 59 58 58 58 58 59 62 61 60 58 55 62 63 62 62 65 63 62 61 60 60 61 62 58 59 59 60 62 63 61 62 61 62 61 61 61 60 59
58 58 57 57 57 58 59 58 58 58 59 60 59 58 50 62 62 62 62 63 65 65 64 63 63 62 62 62 62 64 64 64 63 65 63 62 62 61 62 60 60 60 60
57 57 59 58 57 58 58 59 59 58 56 57 58 58 47 61 62 63 63 64 65 63 65 63 65 66 66 66 65 66 65 65 65 66 65 65 64 64 64 63 62 60 60
55 57 56 55 55 54 57 56 57 56 55 56 54 55 56 58 60 61 62 60 62 60 63 65 66 67 67 68 68 69 69 67 67 67 66 65 66 65 65 65 64 62 60
52 52 51 53 52 51 52 53 53 52 54 54 53 51 52 53 54 54 56 59 62 59 58 59 62 61 64 66 65 68 69 69 69 68 67 67 66 62 66 65 65 64 63
49 49 48 48 48 49 50 51 51 51 50 51 50 49 50 51 52 51 51 53 53 53 53 51 52 53 53 53 54 53 41 35 54 51 64 66 65 65 65 66 64 64 63
47 47 47 46 46 47 47 47 49 50 49 46 45 47 47 48 49 50 49 49 49 50 51 50 48 47 47 46 43 37 35 34 46 38 65 68 67 67 66 65 64 65 64

GFSGL_sfc_temp_144.txt.gz
Temp
91 91 90 90 89 89 88 87 87 86 85 85 85 84 84 84 84 84 83 83 82 83 84 83 82 82 86 89 88 88 87 85 77 84 89 93 89 89 89 91 91 90 89
90 89 89 90 89 89 87 87 86 84 84 83 84 83 83 83 83 82 82 83 82 82 83 81 80 82 80 80 84 80 79 80 78 77 85 89 86 86 87 86 88 91 90
89 90 90 89 88 86 85 85 84 83 83 84 82 81 82 82 82 82 82 81 81 82 82 81 80 80 78 80 81 82 84 80 78 77 83 83 89 89 86 87 84 85 88
90 88 87 86 86 86 84 83 82 82 81 81 82 81 81 82 82 82 81 80 79 80 80 80 81 80 78 78 78 78 80 79 77 75 75 78 82 83 78 83 84 88 89
86 85 84 84 84 83 82 81 81 80 80 80 80 81 81 82 84 82 81 79 78 78 80 81 81 80 75 75 76 77 77 75 75 75 76 73 75 75 74 80 79 85 89
82 82 82 82 82 80 80 79 79 78 79 78 79 79 77 80 71 66 70 77 77 77 77 79 81 78 77 69 70 69 73 75 74 73 75 75 74 72 75 74 79 84 84
81 82 81 81 80 79 79 78 78 77 77 76 75 74 75 77 68 64 65 74 75 76 75 75 77 83 78 82 75 67 68 68 68 77 75 77 77 79 78 75 74 77 84
80 81 81 80 79 79 77 77 76 77 75 74 73 75 76 77 65 63 63 74 74 75 75 74 73 73 72 74 76 76 78 79 76 79 79 80 81 81 79 78 78 79 80
79 79 79 79 77 76 75 75 75 74 74 71 74 74 75 75 64 60 62 75 75 74 76 76 75 73 69 63 68 70 74 76 75 67 68 68 68 66 70 75 72 72 74
77 76 77 77 75 74 73 73 73 73 71 71 71 73 71 73 65 57 61 75 74 77 77 77 66 67 61 59 65 66 66 74 78 79 79 72 68 73 64 75 72 72 74
76 76 75 75 73 73 73 73 72 69 68 69 70 71 73 71 71 57 54 73 76 75 71 65 63 59 56 54 54 64 66 72 71 75 76 74 78 79 78 79 77 75 73
74 73 73 74 74 74 71 69 69 71 68 68 67 69 69 72 62 63 55 54 58 65 62 63 63 57 53 52 54 57 55 58 66 69 72 71 73 78 81 80 77 75 78
70 70 71 72 73 71 66 68 67 70 69 69 68 64 65 67 73 58 55 54 53 58 71 68 56 53 52 53 51 53 53 60 63 65 66 69 74 80 81 74 77 77 77
63 68 69 70 70 70 67 68 65 66 64 67 67 66 65 67 70 63 66 71 64 68 68 71 63 54 54 56 56 60 61 62 63 64 66 69 71 71 71 74 72 71 73
64 66 67 69 69 72 71 73 69 64 60 59 63 60 59 59 60 56 55 63 68 63 49 60 63 62 62 62 62 62 64 64 63 65 67 66 68 68 70 74 77 79 69
63 69 70 70 72 73 70 71 60 53 51 48 45 48 56 52 48 46 44 43 42 43 55 63 64 64 62 60 61 62 66 62 62 63 65 66 65 66 68 73 78 73 69
60 60 66 68 65 67 68 65 62 62 51 48 47 45 43 46 45 44 42 41 42 46 64 74 67 67 61 61 60 62 63 64 64 63 64 66 71 73 70 71 69 72 71
60 56 68 65 68 68 68 67 61 60 57 59 55 51 50 46 45 44 41 44 73 61 77 76 71 74 64 61 60 62 61 62 63 64 64 65 66 67 66 66 67 64 65
59 62 64 68 66 62 66 66 63 62 58 58 59 55 54 49 47 43 43 67 75 77 77 77 75 72 70 65 63 61 61 61 61 62 63 63 64 64 64 66 70 57 59
60 59 60 65 63 61 63 65 65 59 57 57 57 53 54 57 63 67 68 71 75 76 77 76 79 76 70 67 66 65 62 61 62 61 61 61 61 62 61 61 60 60 60
57 57 55 58 58 58 59 56 62 57 56 56 54 55 45 57 57 58 65 67 68 61 67 75 70 77 76 72 69 73 73 67 63 64 63 61 61 61 61 60 59 59 58
55 55 55 54 55 52 55 62 56 58 56 56 57 57 47 58 56 57 57 58 62 62 68 72 74 73 73 73 72 71 70 70 76 79 79 78 73 68 66 62 59 59 59
59 56 54 53 54 54 52 53 53 52 51 52 56 54 54 54 55 54 55 56 59 62 65 68 67 65 67 69 69 71 68 64 64 74 78 78 79 80 80 77 73 71 69
65 62 60 54 51 52 51 47 48 47 48 51 51 51 53 54 55 56 56 57 58 59 60 64 62 61 60 60 62 63 58 52 60 74 76 76 78 70 77 78 78 77 76
66 63 63 62 60 53 49 45 44 45 46 45 47 49 48 49 52 55 55 57 59 61 62 60 62 61 60 58 56 54 40 34 48 41 69 77 78 78 78 76 76 74 74
65 63 63 62 58 52 59 56 49 44 43 43 44 45 44 44 46 48 53 55 57 57 57 59 58 59 57 57 50 39 35 34 43 36 59 78 77 74 78 78 77 79 77